FW7308 Weather Reports


time (UTC)temp
C
wind
direction
speed
KPH
gust
KPH
rain 1hr
cm
rain 24hr
cm
rain mn
cm
humidity
%
barometer
mb
20260505040117 11 13 4.8 8.0 0.00 0.00 0.00 73 1010.5
20260505035616 11 59 6.4 9.7 0.00 0.00 0.00 73 1010.5
20260505035145 11 50 4.8 8.0 0.00 0.00 0.00 72 1010.5
20260505034644 12 128 9.7 16.1 0.00 0.00 0.00 72 1010.5
20260505034145 12 48 6.4 8.0 0.00 0.00 0.00 71 1010.3
20260505033644 12 120 6.4 9.7 0.00 0.00 0.00 71 1010.1
20260505033143 12 116 6.4 14.5 0.00 0.00 0.00 70 1010.1
20260505032645 12 113 6.4 9.7 0.00 0.00 0.00 70 1010.1
20260505032144 12 218 8.0 9.7 0.00 0.00 0.00 69 1010.1
20260505031643 12 57 6.4 9.7 0.00 0.00 0.00 68 1010.1
20260505031142 12 69 4.8 8.0 0.00 0.00 0.00 68 1010.5
20260505030643 12 42 3.2 4.8 0.00 0.00 0.00 68 1010.5
20260505030143 12 71 4.8 4.8 0.00 0.00 0.00 67 1010.1
20260505025642 13 40 4.8 4.8 0.00 0.00 0.00 66 1010.3
20260505025143 13 79 4.8 8.0 0.00 0.00 0.00 65 1010.5
20260505024642 13 172 8.0 11.3 0.00 0.00 0.00 64 1010.5
20260505024141 13 90 8.0 11.3 0.00 0.00 0.00 63 1010.5
20260505023641 13 114 9.7 11.3 0.00 0.00 0.00 63 1010.5
20260505023141 13 69 4.8 8.0 0.00 0.00 0.00 62 1010.5
20260505022641 13 49 6.4 11.3 0.00 0.00 0.00 61 1010.5
20260505022140 13 83 6.4 9.7 0.00 0.00 0.00 60 1010.5
20260505021639 13 79 6.4 8.0 0.00 0.00 0.00 59 1010.5
20260505021139 14 38 3.2 8.0 0.00 0.00 0.00 58 1010.5
20260505020743 14 80 6.4 9.7 0.00 0.00 0.00 57 1010.5
20260505020139 14 39 4.8 8.0 0.00 0.00 0.00 56 1010.5
20260505015638 14 306 4.8 8.0 0.00 0.00 0.00 55 1010.5
20260505015138 13 115 8.0 11.3 0.00 0.00 0.00 57 1010.3
20260505014639 14 343 1.6 3.2 0.00 0.00 0.00 55 1010.1
20260505014138 15 340 1.6 1.6 0.00 0.00 0.00 55 1010.1
20260505013637 15 348 1.6 3.2 0.00 0.00 0.00 54 1010.1
20260505013136 14 335 1.6 1.6 0.00 0.00 0.00 55 1010.1
20260505012635 14 329 1.6 1.6 0.00 0.00 0.00 54 1010.1
20260505012136 15 334 1.6 1.6 0.00 0.00 0.00 55 1010.1
20260505011635 15 344 1.6 3.2 0.00 0.00 0.00 53 1010.1
20260505011135 15 336 0.0 1.6 0.00 0.00 0.00 52 1010.1
20260505010634 15 316 1.6 1.6 0.00 0.00 0.00 51 1010.1
20260505010135 16 355 1.6 3.2 0.00 0.00 0.00 50 1010.0
20260505005634 16 344 1.6 1.6 0.00 0.00 0.00 50 1009.8
20260505005134 15 4 3.2 4.8 0.00 0.00 0.00 50 1010.1
20260505004634 15 19 3.2 3.2 0.00 0.00 0.00 50 1009.8
20260505004134 15 331 0.0 1.6 0.00 0.00 0.00 51 1009.8
20260505003633 16 334 0.0 1.6 0.00 0.00 0.00 51 1009.8
20260505003132 16 336 1.6 1.6 0.00 0.00 0.00 50 1009.8
20260505002632 16 324 0.0 1.6 0.00 0.00 0.00 49 1009.6
20260505002133 16 0.0 0.0 0.00 0.00 0.00 49 1009.4
20260505001632 16 0.0 0.0 0.00 0.00 0.00 49 1009.4
20260505001131 16 343 1.6 3.2 0.00 0.00 0.00 49 1009.4
20260505000630 16 332 0.0 1.6 0.00 0.00 0.00 49 1009.4
20260505000129 16 0.0 0.0 0.00 0.00 0.00 48 1009.3
20260504235629 17 344 1.6 3.2 0.00 0.00 0.00 49 1009.1
20260504235130 17 337 1.6 1.6 0.00 0.00 0.00 48 1009.1
20260504234629 17 332 0.0 1.6 0.00 0.00 0.00 47 1009.1
20260504234128 17 0.0 0.0 0.00 0.00 0.00 46 1009.1
20260504233629 17 326 0.0 1.6 0.00 0.00 0.00 46 1009.1
20260504233129 17 313 1.6 1.6 0.00 0.00 0.00 46 1008.7
20260504232628 17 347 1.6 3.2 0.00 0.00 0.00 46 1008.7
20260504232127 18 314 1.6 1.6 0.00 0.00 0.00 45 1008.7
20260504231626 18 318 1.6 3.2 0.00 0.00 0.00 45 1008.7
20260504231127 18 346 1.6 3.2 0.00 0.00 0.00 45 1008.7
20260504230627 18 330 0.0 3.2 0.00 0.00 0.00 45 1008.7
20260504230126 18 324 0.0 1.6 0.00 0.00 0.00 44 1008.7
20260504225625 18 320 0.0 1.6 0.00 0.00 0.00 44 1008.7
20260504225126 18 311 0.0 1.6 0.00 0.00 0.00 44 1008.4
20260504224625 18 97 1.6 4.8 0.00 0.00 0.00 44 1008.4
20260504224225 18 286 6.4 9.7 0.00 0.00 0.00 43 1008.4
20260504223625 18 297 4.8 9.7 0.00 0.00 0.00 44 1008.7
20260504223124 18 129 6.4 9.7 0.00 0.00 0.00 44 1008.4
20260504222624 19 350 3.2 3.2 0.00 0.00 0.00 43 1008.4
20260504222124 19 342 4.8 9.7 0.00 0.00 0.00 43 1008.4
20260504221623 18 337 1.6 3.2 0.00 0.00 0.00 42 1008.4
20260504221222 19 184 6.4 12.9 0.00 0.00 0.00 42 1008.2
20260504220724 18 314 6.4 9.7 0.00 0.00 0.00 43 1008.4
20260504220222 19 353 4.8 8.0 0.00 0.00 0.00 42 1008.0
20260504215621 20 332 4.8 8.0 0.00 0.00 0.00 41 1008.0
20260504215120 19 316 1.6 3.2 0.00 0.00 0.00 42 1008.2
20260504214622 20 306 8.0 11.3 0.00 0.00 0.00 41 1008.0
20260504214121 20 319 4.8 8.0 0.00 0.00 0.00 40 1008.0
20260504213219 20 342 8.0 11.3 0.00 0.00 0.00 41 1008.0
20260504212121 20 331 6.4 11.3 0.00 0.00 0.00 41 1008.4
20260504211619 20 355 14.5 22.5 0.00 0.00 0.00 41 1008.4
20260504211118 20 306 3.2 4.8 0.00 0.00 0.00 41 1008.4
20260504210619 19 309 8.0 16.1 0.00 0.00 0.00 42 1008.6
20260504210118 20 321 6.4 14.5 0.00 0.00 0.00 42 1008.6
20260504205618 20 12 1.6 1.6 0.00 0.00 0.00 41 1008.4
20260504205117 19 312 12.9 20.9 0.00 0.00 0.00 42 1008.4
20260504204616 18 299 8.0 11.3 0.00 0.00 0.00 43 1008.7
20260504204117 19 323 9.7 16.1 0.00 0.00 0.00 42 1008.4
20260504203616 19 325 6.4 8.0 0.00 0.00 0.00 43 1008.7
20260504203120 19 159 12.9 22.5 0.00 0.00 0.00 42 1008.7
20260504202648 19 8 6.4 12.9 0.00 0.00 0.00 43 1008.4
20260504202149 18 330 8.0 11.3 0.00 0.00 0.00 42 1008.4
20260504201645 19 292 6.4 11.3 0.00 0.00 0.00 42 1008.6
20260504201144 18 303 9.7 11.3 0.00 0.00 0.00 43 1008.7
20260504200643 18 357 3.2 3.2 0.00 0.00 0.00 44 1008.7
20260504200145 19 350 4.8 11.3 0.00 0.00 0.00 42 1008.6
20260504195644 18 319 4.8 8.0 0.00 0.00 0.00 44 1008.7
20260504195143 20 2 8.0 9.7 0.00 0.00 0.00 42 1008.7
20260504194144 20 355 9.7 12.9 0.00 0.00 0.00 42 1008.6
20260504193142 18 292 8.0 16.1 0.00 0.00 0.00 42 1008.7
20260504192641 18 339 6.4 12.9 0.00 0.00 0.00 44 1008.7
20260504192142 18 335 6.4 14.5 0.00 0.00 0.00 43 1009.1
20260504191642 18 3 3.2 4.8 0.00 0.00 0.00 44 1008.7
20260504191141 18 302 8.0 16.1 0.00 0.00 0.00 43 1009.1
20260504190640 18 301 4.8 9.7 0.00 0.00 0.00 43 1008.7
20260504185640 18 304 12.9 22.5 0.00 0.00 0.00 43 1008.7
20260504185140 18 238 6.4 9.7 0.00 0.00 0.00 44 1008.7
20260504184639 17 298 6.4 11.3 0.00 0.00 0.00 44 1008.7
20260504184238 17 301 6.4 9.7 0.00 0.00 0.00 44 1008.7
20260504183639 18 331 11.3 20.9 0.00 0.00 0.00 43 1008.9
20260504183138 18 248 8.0 11.3 0.00 0.00 0.00 44 1008.7
20260504182637 18 308 4.8 8.0 0.00 0.00 0.00 44 1008.7
20260504182138 18 327 8.0 17.7 0.00 0.00 0.00 43 1009.1
20260504181638 18 355 6.4 11.3 0.00 0.00 0.00 44 1009.1
20260504181137 17 42 4.8 8.0 0.00 0.00 0.00 45 1008.7
20260504180701 17 338 6.4 9.7 0.00 0.00 0.00 44 1008.9
20260504180135 17 310 11.3 22.5 0.00 0.00 0.00 45 1009.1
20260504175638 17 336 14.5 20.9 0.00 0.00 0.00 45 1009.1
20260504175136 17 357 6.4 11.3 0.00 0.00 0.00 45 1009.1
20260504174635 17 337 3.2 4.8 0.00 0.00 0.00 45 1009.1
20260504173637 18 326 8.0 12.9 0.00 0.00 0.00 44 1009.1
20260504173134 18 335 8.0 12.9 0.00 0.00 0.00 42 1008.9
20260504172634 18 307 9.7 17.7 0.00 0.00 0.00 44 1009.1
20260504172135 18 339 8.0 16.1 0.00 0.00 0.00 43 1009.1
20260504171634 18 161 9.7 16.1 0.00 0.00 0.00 43 1009.3
20260504171133 18 210 11.3 17.7 0.00 0.00 0.00 43 1008.7
20260504170632 17 310 4.8 12.9 0.00 0.00 0.00 44 1009.1
20260504170131 18 335 17.7 25.7 0.00 0.00 0.00 43 1009.4
20260504160128 16 121 9.7 12.9 0.00 0.00 0.00 47 1009.8
20260504151126 17 290 4.8 9.7 0.00 0.00 0.00 45 1009.8
20260504150625 16 230 8.0 12.9 0.00 0.00 0.00 46 1009.8
20260504150224 16 326 4.8 4.8 0.00 0.00 0.00 45 1009.8
20260504141119 15 273 11.3 25.7 0.00 0.00 0.00 48 1010.3
20260504140619 16 257 8.0 14.5 0.00 0.00 0.00 45 1009.8
20260504140120 16 224 8.0 11.3 0.00 0.00 0.00 45 1009.8
20260504130745 11 301 3.2 4.8 0.00 0.00 0.00 61 1010.3
20260504130144 11 166 11.3 17.7 0.00 0.00 0.00 61 1010.5
20260504120140 8 171 4.8 8.0 0.00 0.00 0.00 71 1010.9
20260504110637 6 344 1.6 1.6 0.00 0.00 0.00 74 1010.5
20260504110136 6 330 1.6 3.2 0.00 0.00 0.00 74 1010.9
20260504100134 5 332 0.0 1.6 0.00 0.00 0.00 81 1010.5
20260504081625 7 324 1.6 3.2 0.00 0.00 0.00 82 1010.7
20260504081127 7 332 1.6 3.2 0.00 0.00 0.00 80 1010.9
20260504080626 7 312 1.6 3.2 0.00 0.00 0.00 80 1010.9
20260504080125 7 306 4.8 9.7 0.00 0.00 0.00 78 1010.9
20260504070121 6 0.0 0.0 0.00 0.00 0.00 79 1010.5
20260504045744 5 0.0 0.0 0.00 0.00 0.00 67 1010.9
20260504045142 5 317 1.6 3.2 0.00 0.00 0.00 65 1010.9
20260504044641 5 343 0.0 1.6 0.00 0.00 0.00 67 1011.2